Location: Jaworzyna Śląska
(50.9128°N, 16.4318°E)
Time: 04:15:00
(UTC+01:00)

ISS - Pass Details

Date: 01 February 2019
Orbit: 403 x 411 km, 51.6° (Epoch: 21 February)

Event Time Altitude Azimuth Distance (km) Brightness Sun altitude
Rises 17:17:55 0° 261° (W) 2,330 2.2 -5.6°
Reaches altitude 10° 17:20:00 10° 262° (W) 1,472 0.7 -5.9°
Maximum altitude 17:23:18 85° 350° (N) 417 -3.8 -6.4°
Drops below altitude 10° 17:26:38 10° 80° (E) 1,480 -1.6 -6.9°
Enters shadow 17:26:50 - 80° (E) 1,563 -1.5 -6.9°
